Location: Sternwarte_Laufen
(47.9344°N, 12.9346°E)
Time: 21:39:49
(UTC+01:00)

ISS - Visible Passes

Search period start: 23 November 2017 00:00
Search period end: 03 December 2017 00:00
Orbit: 402 x 407 km, 51.6° (Epoch: 24 November)

Date Brightness Start Highest point End Pass type
(mag) Time Alt. Az. Time Alt. Az. Time Alt. Az.
27 Nov -0.8 19:07:31 10° SW 19:07:51 12° SW 19:07:51 12° SW visible
28 Nov -2.3 18:15:35 10° SSW 18:17:50 26° SSE 18:17:50 26° SSE visible
29 Nov -1.8 17:24:03 10° S 17:26:15 17° SE 17:27:45 13° ESE visible
29 Nov -1.4 18:59:03 10° WSW 19:00:25 23° WSW 19:00:25 23° WSW visible
30 Nov -3.6 18:06:47 10° SW 18:09:59 53° SSE 18:10:15 51° SE visible
01 Dec -2.7 17:14:43 10° SSW 17:17:41 32° SE 17:20:01 14° E visible
01 Dec -1.9 18:50:47 10° W 18:52:40 30° W 18:52:40 30° W visible
02 Dec -3.9 17:58:18 10° WSW 18:01:36 85° NNW 18:02:23 49° ENE visible
